Retour au catalogue

STARLINK-32552

ActifCommunicationsVLEO
NORAD 62174·PAYLOAD·🇺🇸 United States

Lancé Nov 30, 2024 depuis Vandenberg Space Force Base

Loading…

Prochains Passages (prochaines 24 heures)

TLE

FraisSource: CelesTrak SupGP

Époque: Sep 14, 2026, 21:42 UTC

1 62174C 24225M   26257.90465278  .00044692  00000+0  37466-2 0  2577
2 62174  70.0018  47.2588 0002691 278.8470 331.6136 14.98297112    14

Suivez STARLINK-32552 en temps réel avec AllMySat

Download on the App Store